This demonstration page uses our WeatherBlox Daily Observations layout. Learn more.

Left ArrowRight Arrow

34.02893, -84.19858

Hourly Observations for February 6, 2022

Temp ( °F °C ) Dew Point ( °F °C ) Humidity (%) Winds ( mph kmh ) Pressure ( in mb ) Visibility ( mi km ) Precip ( " mm )
12:53 am 00:53 Clear 32 0 21 -6.1 64 64 NE 5 7 30.39 1029 10 16 0.00 0.00
1:53 am 01:53 Clear 32 0 21 -6.1 64 64 E 3 6 30.39 1029 10 16 0.00 0.00
2:53 am 02:53 Clear 33 0.6 21 -6.1 61 61 VRB 5 7 30.37 1029 10 16 0.00 0.00
3:53 am 03:53 Clear 33 0.6 21 -6.1 61 61 VRB 5 7 30.38 1029 10 16 0.00 0.00
4:53 am 04:53 Clear 32 0 21 -6.1 64 64 VRB 6 9 30.39 1029 10 16 0.00 0.00
5:53 am 05:53 Clear 32 0 20 -6.7 61 61 VRB 3 6 30.40 1030 10 16 0.00 0.00
6:53 am 06:53 Clear 31 -0.6 19 -7.2 61 61 VRB 5 7 30.41 1030 10 16 0.00 0.00
7:53 am 07:53 Sunny 31 -0.6 18 -7.8 59 59 VRB 7 11 30.43 1030 10 16 0.00 0.00
8:53 am 08:53 Sunny 34 1.1 17 -8.3 50 50 E 7 11 30.43 1031 10 16 0.00 0.00
9:53 am 09:53 Sunny 37 2.8 17 -8.3 44 44 ENE 10 17 30.45 1031 10 16 0.00 0.00
10:53 am 10:53 Sunny 40 4.4 18 -7.8 41 41 VRB 7 11 30.43 1031 10 16 0.00 0.00
11:53 am 11:53 Sunny 43 6.1 17 -8.3 35 35 ENE 9 15 30.42 1030 10 16 0.00 0.00
12:53 pm 12:53 Sunny 45 7.2 19 -7.2 35 35 undefined N/A 30.38 1029 10 16 0.00 0.00
1:53 pm 13:53 Sunny 47 8.3 20 -6.7 34 34 NE 7 11 30.34 1028 10 16 0.00 0.00
2:53 pm 14:53 Sunny 49 9.4 22 -5.6 35 35 ENE 6 9 30.32 1027 10 16 0.00 0.00
3:53 pm 15:53 Sunny 50 10 23 -5 35 35 undefined N/A 30.29 1026 10 16 0.00 0.00
4:53 pm 16:53 Sunny 50 10 24 -4.4 36 36 Calm 30.28 1025 10 16 0.00 0.00
5:53 pm 17:53 Mostly Cloudy 47 8.3 23 -5 39 39 VRB 3 6 30.28 1026 10 16 0.00 0.00
6:53 pm 18:53 Cloudy 46 7.8 23 -5 40 40 VRB 6 9 30.31 1026 10 16 0.00 0.00
7:53 pm 19:53 Cloudy 46 7.8 23 -5 40 40 VRB 7 11 30.32 1027 10 16 0.00 0.00
8:53 pm 20:53 Cloudy 45 7.2 23 -5 42 42 VRB 6 9 30.33 1027 10 16 0.00 0.00
9:53 pm 21:53 Cloudy 44 6.7 24 -4.4 45 45 E 3 6 30.33 1027 10 16 0.00 0.00
10:53 pm 22:53 Cloudy 44 6.7 25 -3.9 47 47 E 6 9 30.32 1027 10 16 0.00 0.00
11:53 pm 23:53 Cloudy 43 6.1 23 -5 45 45 ENE 5 7 30.30 1026 10 16 0.00 0.00

Powered by AerisWeather